Index of /20260422/WXO-DD/model_gdps/15km/00/054
Name Last modified Size Description
Parent Directory -
20260422T00Z_MSC_GDPS_AbsoluteVorticity_IsbL-0200_LatLon0.15_PT054H.grib2 2026-04-22 04:17 1.2M
20260422T00Z_MSC_GDPS_AbsoluteVorticity_IsbL-0250_LatLon0.15_PT054H.grib2 2026-04-22 04:17 1.3M
20260422T00Z_MSC_GDPS_AbsoluteVorticity_IsbL-0500_LatLon0.15_PT054H.grib2 2026-04-22 04:17 1.5M
20260422T00Z_MSC_GDPS_AbsoluteVorticity_IsbL-0700_LatLon0.15_PT054H.grib2 2026-04-22 04:17 1.6M
20260422T00Z_MSC_GDPS_AbsoluteVorticity_IsbL-0850_LatLon0.15_PT054H.grib2 2026-04-22 04:17 1.6M
20260422T00Z_MSC_GDPS_AirTemp-Max_AGL-2m_LatLon0.15_PT054H.grib2 2026-04-22 04:17 738K
20260422T00Z_MSC_GDPS_AirTemp-Min_AGL-2m_LatLon0.15_PT054H.grib2 2026-04-22 04:17 898K
20260422T00Z_MSC_GDPS_AirTemp_AGL-120m_LatLon0.15_PT054H.grib2 2026-04-22 04:17 901K
20260422T00Z_MSC_GDPS_AirTemp_AGL-2m_LatLon0.15_PT054H.grib2 2026-04-22 04:17 1.0M
20260422T00Z_MSC_GDPS_AirTemp_AGL-40m_LatLon0.15_PT054H.grib2 2026-04-22 04:17 919K
20260422T00Z_MSC_GDPS_AirTemp_AGL-80m_LatLon0.15_PT054H.grib2 2026-04-22 04:17 908K
20260422T00Z_MSC_GDPS_AirTemp_IsbL-0001_LatLon0.15_PT054H.grib2 2026-04-22 04:17 643K
20260422T00Z_MSC_GDPS_AirTemp_IsbL-0005_LatLon0.15_PT054H.grib2 2026-04-22 04:17 748K
20260422T00Z_MSC_GDPS_AirTemp_IsbL-0010_LatLon0.15_PT054H.grib2 2026-04-22 04:17 757K
20260422T00Z_MSC_GDPS_AirTemp_IsbL-0020_LatLon0.15_PT054H.grib2 2026-04-22 04:17 697K
20260422T00Z_MSC_GDPS_AirTemp_IsbL-0030_LatLon0.15_PT054H.grib2 2026-04-22 04:17 751K
20260422T00Z_MSC_GDPS_AirTemp_IsbL-0050_LatLon0.15_PT054H.grib2 2026-04-22 04:17 810K
20260422T00Z_MSC_GDPS_AirTemp_IsbL-0100_LatLon0.15_PT054H.grib2 2026-04-22 04:17 950K
20260422T00Z_MSC_GDPS_AirTemp_IsbL-0150_LatLon0.15_PT054H.grib2 2026-04-22 04:17 1.0M
20260422T00Z_MSC_GDPS_AirTemp_IsbL-0175_LatLon0.15_PT054H.grib2 2026-04-22 04:17 1.0M
20260422T00Z_MSC_GDPS_AirTemp_IsbL-0200_LatLon0.15_PT054H.grib2 2026-04-22 04:17 1.0M
20260422T00Z_MSC_GDPS_AirTemp_IsbL-0225_LatLon0.15_PT054H.grib2 2026-04-22 04:17 1.0M
20260422T00Z_MSC_GDPS_AirTemp_IsbL-0250_LatLon0.15_PT054H.grib2 2026-04-22 04:17 1.0M
20260422T00Z_MSC_GDPS_AirTemp_IsbL-0275_LatLon0.15_PT054H.grib2 2026-04-22 04:17 1.0M
20260422T00Z_MSC_GDPS_AirTemp_IsbL-0300_LatLon0.15_PT054H.grib2 2026-04-22 04:17 1.0M
20260422T00Z_MSC_GDPS_AirTemp_IsbL-0350_LatLon0.15_PT054H.grib2 2026-04-22 04:17 935K
20260422T00Z_MSC_GDPS_AirTemp_IsbL-0400_LatLon0.15_PT054H.grib2 2026-04-22 04:17 946K
20260422T00Z_MSC_GDPS_AirTemp_IsbL-0450_LatLon0.15_PT054H.grib2 2026-04-22 04:17 965K
20260422T00Z_MSC_GDPS_AirTemp_IsbL-0500_LatLon0.15_PT054H.grib2 2026-04-22 04:17 1.0M
20260422T00Z_MSC_GDPS_AirTemp_IsbL-0550_LatLon0.15_PT054H.grib2 2026-04-22 04:17 802K
20260422T00Z_MSC_GDPS_AirTemp_IsbL-0600_LatLon0.15_PT054H.grib2 2026-04-22 04:17 893K
20260422T00Z_MSC_GDPS_AirTemp_IsbL-0650_LatLon0.15_PT054H.grib2 2026-04-22 04:17 916K
20260422T00Z_MSC_GDPS_AirTemp_IsbL-0700_LatLon0.15_PT054H.grib2 2026-04-22 04:17 949K
20260422T00Z_MSC_GDPS_AirTemp_IsbL-0750_LatLon0.15_PT054H.grib2 2026-04-22 04:17 1.0M
20260422T00Z_MSC_GDPS_AirTemp_IsbL-0800_LatLon0.15_PT054H.grib2 2026-04-22 04:17 1.1M
20260422T00Z_MSC_GDPS_AirTemp_IsbL-0850_LatLon0.15_PT054H.grib2 2026-04-22 04:17 1.1M
20260422T00Z_MSC_GDPS_AirTemp_IsbL-0875_LatLon0.15_PT054H.grib2 2026-04-22 04:17 1.1M
20260422T00Z_MSC_GDPS_AirTemp_IsbL-0900_LatLon0.15_PT054H.grib2 2026-04-22 04:17 1.1M
20260422T00Z_MSC_GDPS_AirTemp_IsbL-0925_LatLon0.15_PT054H.grib2 2026-04-22 04:17 1.1M
20260422T00Z_MSC_GDPS_AirTemp_IsbL-0950_LatLon0.15_PT054H.grib2 2026-04-22 04:17 1.1M
20260422T00Z_MSC_GDPS_AirTemp_IsbL-0970_LatLon0.15_PT054H.grib2 2026-04-22 04:17 1.1M
20260422T00Z_MSC_GDPS_AirTemp_IsbL-0985_LatLon0.15_PT054H.grib2 2026-04-22 04:17 1.1M
20260422T00Z_MSC_GDPS_AirTemp_IsbL-1000_LatLon0.15_PT054H.grib2 2026-04-22 04:17 1.1M
20260422T00Z_MSC_GDPS_AirTemp_IsbL-1015_LatLon0.15_PT054H.grib2 2026-04-22 04:17 1.1M
20260422T00Z_MSC_GDPS_Albedo_Sfc_LatLon0.15_PT054H.grib2 2026-04-22 04:17 248K
20260422T00Z_MSC_GDPS_CAPE_Sfc_LatLon0.15_PT054H.grib2 2026-04-22 04:17 3.8M
20260422T00Z_MSC_GDPS_CIN_Sfc_LatLon0.15_PT054H.grib2 2026-04-22 04:17 2.9M
20260422T00Z_MSC_GDPS_CloudWater_EAtm_LatLon0.15_PT054H.grib2 2026-04-22 04:17 525K
20260422T00Z_MSC_GDPS_ConvectivePrecip-Accum_Sfc_LatLon0.15_PT054H.grib2 2026-04-22 04:17 2.9M
20260422T00Z_MSC_GDPS_DewPointDepression_AGL-2m_LatLon0.15_PT054H.grib2 2026-04-22 04:17 752K
20260422T00Z_MSC_GDPS_DewPointDepression_IsbL-0010_LatLon0.15_PT054H.grib2 2026-04-22 04:17 36K
20260422T00Z_MSC_GDPS_DewPointDepression_IsbL-0020_LatLon0.15_PT054H.grib2 2026-04-22 04:17 71K
20260422T00Z_MSC_GDPS_DewPointDepression_IsbL-0030_LatLon0.15_PT054H.grib2 2026-04-22 04:17 77K
20260422T00Z_MSC_GDPS_DewPointDepression_IsbL-0050_LatLon0.15_PT054H.grib2 2026-04-22 04:17 360K
20260422T00Z_MSC_GDPS_DewPointDepression_IsbL-0100_LatLon0.15_PT054H.grib2 2026-04-22 04:17 401K
20260422T00Z_MSC_GDPS_DewPointDepression_IsbL-0150_LatLon0.15_PT054H.grib2 2026-04-22 04:17 470K
20260422T00Z_MSC_GDPS_DewPointDepression_IsbL-0175_LatLon0.15_PT054H.grib2 2026-04-22 04:17 568K
20260422T00Z_MSC_GDPS_DewPointDepression_IsbL-0200_LatLon0.15_PT054H.grib2 2026-04-22 04:17 660K
20260422T00Z_MSC_GDPS_DewPointDepression_IsbL-0225_LatLon0.15_PT054H.grib2 2026-04-22 04:17 770K
20260422T00Z_MSC_GDPS_DewPointDepression_IsbL-0250_LatLon0.15_PT054H.grib2 2026-04-22 04:17 864K
20260422T00Z_MSC_GDPS_DewPointDepression_IsbL-0275_LatLon0.15_PT054H.grib2 2026-04-22 04:17 890K
20260422T00Z_MSC_GDPS_DewPointDepression_IsbL-0300_LatLon0.15_PT054H.grib2 2026-04-22 04:17 938K
20260422T00Z_MSC_GDPS_DewPointDepression_IsbL-0350_LatLon0.15_PT054H.grib2 2026-04-22 04:17 962K
20260422T00Z_MSC_GDPS_DewPointDepression_IsbL-0400_LatLon0.15_PT054H.grib2 2026-04-22 04:17 1.0M
20260422T00Z_MSC_GDPS_DewPointDepression_IsbL-0450_LatLon0.15_PT054H.grib2 2026-04-22 04:17 1.0M
20260422T00Z_MSC_GDPS_DewPointDepression_IsbL-0500_LatLon0.15_PT054H.grib2 2026-04-22 04:17 1.0M
20260422T00Z_MSC_GDPS_DewPointDepression_IsbL-0550_LatLon0.15_PT054H.grib2 2026-04-22 04:17 1.0M
20260422T00Z_MSC_GDPS_DewPointDepression_IsbL-0600_LatLon0.15_PT054H.grib2 2026-04-22 04:17 1.0M
20260422T00Z_MSC_GDPS_DewPointDepression_IsbL-0650_LatLon0.15_PT054H.grib2 2026-04-22 04:17 1.0M
20260422T00Z_MSC_GDPS_DewPointDepression_IsbL-0700_LatLon0.15_PT054H.grib2 2026-04-22 04:17 1.1M
20260422T00Z_MSC_GDPS_DewPointDepression_IsbL-0750_LatLon0.15_PT054H.grib2 2026-04-22 04:17 1.1M
20260422T00Z_MSC_GDPS_DewPointDepression_IsbL-0800_LatLon0.15_PT054H.grib2 2026-04-22 04:17 1.1M
20260422T00Z_MSC_GDPS_DewPointDepression_IsbL-0850_LatLon0.15_PT054H.grib2 2026-04-22 04:17 1.1M
20260422T00Z_MSC_GDPS_DewPointDepression_IsbL-0875_LatLon0.15_PT054H.grib2 2026-04-22 04:17 1.1M
20260422T00Z_MSC_GDPS_DewPointDepression_IsbL-0900_LatLon0.15_PT054H.grib2 2026-04-22 04:17 1.0M
20260422T00Z_MSC_GDPS_DewPointDepression_IsbL-0925_LatLon0.15_PT054H.grib2 2026-04-22 04:17 1.0M
20260422T00Z_MSC_GDPS_DewPointDepression_IsbL-0950_LatLon0.15_PT054H.grib2 2026-04-22 04:17 1.0M
20260422T00Z_MSC_GDPS_DewPointDepression_IsbL-0970_LatLon0.15_PT054H.grib2 2026-04-22 04:17 1.0M
20260422T00Z_MSC_GDPS_DewPointDepression_IsbL-0985_LatLon0.15_PT054H.grib2 2026-04-22 04:17 972K
20260422T00Z_MSC_GDPS_DewPointDepression_IsbL-1000_LatLon0.15_PT054H.grib2 2026-04-22 04:17 959K
20260422T00Z_MSC_GDPS_DewPointDepression_IsbL-1015_LatLon0.15_PT054H.grib2 2026-04-22 04:17 900K
20260422T00Z_MSC_GDPS_DewPoint_AGL-2m_LatLon0.15_PT054H.grib2 2026-04-22 04:17 601K
20260422T00Z_MSC_GDPS_DownwardLongwaveRadiationFlux-Accum_Sfc_LatLon0.15_PT054H.grib2 2026-04-22 04:17 843K
20260422T00Z_MSC_GDPS_DownwardShortwaveRadiationFlux-Accum_NTAtm_LatLon0.15_PT054H.grib2 2026-04-22 04:17 196K
20260422T00Z_MSC_GDPS_DownwardShortwaveRadiationFlux-Accum_Sfc_LatLon0.15_PT054H.grib2 2026-04-22 04:17 1.1M
20260422T00Z_MSC_GDPS_FreezingRain-Accum12h_Sfc_LatLon0.15_PT054H.grib2 2026-04-22 04:17 97K
20260422T00Z_MSC_GDPS_FreezingRain-Accum1h_Sfc_LatLon0.15_PT054H.grib2 2026-04-22 04:17 29K
20260422T00Z_MSC_GDPS_FreezingRain-Accum24h_Sfc_LatLon0.15_PT054H.grib2 2026-04-22 04:17 131K
20260422T00Z_MSC_GDPS_FreezingRain-Accum3h_Sfc_LatLon0.15_PT054H.grib2 2026-04-22 04:17 39K
20260422T00Z_MSC_GDPS_FreezingRain-Accum6h_Sfc_LatLon0.15_PT054H.grib2 2026-04-22 04:17 71K
20260422T00Z_MSC_GDPS_FreezingRain-Accum_Sfc_LatLon0.15_PT054H.grib2 2026-04-22 04:17 216K
20260422T00Z_MSC_GDPS_GeopotentialHeight_IsbL-0001_LatLon0.15_PT054H.grib2 2026-04-22 04:17 408K
20260422T00Z_MSC_GDPS_GeopotentialHeight_IsbL-0005_LatLon0.15_PT054H.grib2 2026-04-22 04:17 497K
20260422T00Z_MSC_GDPS_GeopotentialHeight_IsbL-0010_LatLon0.15_PT054H.grib2 2026-04-22 04:17 423K
20260422T00Z_MSC_GDPS_GeopotentialHeight_IsbL-0020_LatLon0.15_PT054H.grib2 2026-04-22 04:17 560K
20260422T00Z_MSC_GDPS_GeopotentialHeight_IsbL-0030_LatLon0.15_PT054H.grib2 2026-04-22 04:17 565K
20260422T00Z_MSC_GDPS_GeopotentialHeight_IsbL-0050_LatLon0.15_PT054H.grib2 2026-04-22 04:17 571K
20260422T00Z_MSC_GDPS_GeopotentialHeight_IsbL-0100_LatLon0.15_PT054H.grib2 2026-04-22 04:17 608K
20260422T00Z_MSC_GDPS_GeopotentialHeight_IsbL-0150_LatLon0.15_PT054H.grib2 2026-04-22 04:17 626K
20260422T00Z_MSC_GDPS_GeopotentialHeight_IsbL-0175_LatLon0.15_PT054H.grib2 2026-04-22 04:17 631K
20260422T00Z_MSC_GDPS_GeopotentialHeight_IsbL-0200_LatLon0.15_PT054H.grib2 2026-04-22 04:17 637K
20260422T00Z_MSC_GDPS_GeopotentialHeight_IsbL-0225_LatLon0.15_PT054H.grib2 2026-04-22 04:17 636K
20260422T00Z_MSC_GDPS_GeopotentialHeight_IsbL-0250_LatLon0.15_PT054H.grib2 2026-04-22 04:17 644K
20260422T00Z_MSC_GDPS_GeopotentialHeight_IsbL-0275_LatLon0.15_PT054H.grib2 2026-04-22 04:17 645K
20260422T00Z_MSC_GDPS_GeopotentialHeight_IsbL-0300_LatLon0.15_PT054H.grib2 2026-04-22 04:17 637K
20260422T00Z_MSC_GDPS_GeopotentialHeight_IsbL-0350_LatLon0.15_PT054H.grib2 2026-04-22 04:17 634K
20260422T00Z_MSC_GDPS_GeopotentialHeight_IsbL-0400_LatLon0.15_PT054H.grib2 2026-04-22 04:17 628K
20260422T00Z_MSC_GDPS_GeopotentialHeight_IsbL-0450_LatLon0.15_PT054H.grib2 2026-04-22 04:17 619K
20260422T00Z_MSC_GDPS_GeopotentialHeight_IsbL-0500_LatLon0.15_PT054H.grib2 2026-04-22 04:17 539K
20260422T00Z_MSC_GDPS_GeopotentialHeight_IsbL-0550_LatLon0.15_PT054H.grib2 2026-04-22 04:17 529K
20260422T00Z_MSC_GDPS_GeopotentialHeight_IsbL-0600_LatLon0.15_PT054H.grib2 2026-04-22 04:17 525K
20260422T00Z_MSC_GDPS_GeopotentialHeight_IsbL-0650_LatLon0.15_PT054H.grib2 2026-04-22 04:17 689K
20260422T00Z_MSC_GDPS_GeopotentialHeight_IsbL-0700_LatLon0.15_PT054H.grib2 2026-04-22 04:17 688K
20260422T00Z_MSC_GDPS_GeopotentialHeight_IsbL-0750_LatLon0.15_PT054H.grib2 2026-04-22 04:17 687K
20260422T00Z_MSC_GDPS_GeopotentialHeight_IsbL-0800_LatLon0.15_PT054H.grib2 2026-04-22 04:17 697K
20260422T00Z_MSC_GDPS_GeopotentialHeight_IsbL-0850_LatLon0.15_PT054H.grib2 2026-04-22 04:17 710K
20260422T00Z_MSC_GDPS_GeopotentialHeight_IsbL-0875_LatLon0.15_PT054H.grib2 2026-04-22 04:17 719K
20260422T00Z_MSC_GDPS_GeopotentialHeight_IsbL-0900_LatLon0.15_PT054H.grib2 2026-04-22 04:17 725K
20260422T00Z_MSC_GDPS_GeopotentialHeight_IsbL-0925_LatLon0.15_PT054H.grib2 2026-04-22 04:17 732K
20260422T00Z_MSC_GDPS_GeopotentialHeight_IsbL-0950_LatLon0.15_PT054H.grib2 2026-04-22 04:17 740K
20260422T00Z_MSC_GDPS_GeopotentialHeight_IsbL-0970_LatLon0.15_PT054H.grib2 2026-04-22 04:17 750K
20260422T00Z_MSC_GDPS_GeopotentialHeight_IsbL-0985_LatLon0.15_PT054H.grib2 2026-04-22 04:17 765K
20260422T00Z_MSC_GDPS_GeopotentialHeight_IsbL-1000_LatLon0.15_PT054H.grib2 2026-04-22 04:17 786K
20260422T00Z_MSC_GDPS_GeopotentialHeight_IsbL-1015_LatLon0.15_PT054H.grib2 2026-04-22 04:17 809K
20260422T00Z_MSC_GDPS_Humidex_Sfc_LatLon0.15_PT054H.grib2 2026-04-22 04:17 5.3M
20260422T00Z_MSC_GDPS_IcePellets-Accum12h_Sfc_LatLon0.15_PT054H.grib2 2026-04-22 04:17 28K
20260422T00Z_MSC_GDPS_IcePellets-Accum1h_Sfc_LatLon0.15_PT054H.grib2 2026-04-22 04:17 18K
20260422T00Z_MSC_GDPS_IcePellets-Accum24h_Sfc_LatLon0.15_PT054H.grib2 2026-04-22 04:17 42K
20260422T00Z_MSC_GDPS_IcePellets-Accum3h_Sfc_LatLon0.15_PT054H.grib2 2026-04-22 04:17 18K
20260422T00Z_MSC_GDPS_IcePellets-Accum6h_Sfc_LatLon0.15_PT054H.grib2 2026-04-22 04:17 24K
20260422T00Z_MSC_GDPS_IcePellets-Accum_Sfc_LatLon0.15_PT054H.grib2 2026-04-22 04:17 72K
20260422T00Z_MSC_GDPS_KIndex_Sfc_LatLon0.15_PT054H.grib2 2026-04-22 04:17 6.4M
20260422T00Z_MSC_GDPS_LatentHeatNetFlux_Sfc_LatLon0.15_PT054H.grib2 2026-04-22 04:17 536K
20260422T00Z_MSC_GDPS_LiftedIndex-MU-VT_IsbL-0500_LatLon0.15_PT054H.grib2 2026-04-22 04:17 5.4M
20260422T00Z_MSC_GDPS_NetLongwaveRadiationFlux-Accum_Sfc_LatLon0.15_PT054H.grib2 2026-04-22 04:17 1.1M
20260422T00Z_MSC_GDPS_NetShortwaveRadiationFlux-Accum_Sfc_LatLon0.15_PT054H.grib2 2026-04-22 04:17 1.0M
20260422T00Z_MSC_GDPS_O3MixingRatio_LatLon0.15_PT054H.grib2 2026-04-22 04:58 2.3M
20260422T00Z_MSC_GDPS_O3_EAtm_LatLon0.15_PT054H.grib2 2026-04-22 04:58 2.5M
20260422T00Z_MSC_GDPS_PlanetaryBoundaryLayerHeight_Sfc_LatLon0.15_PT054H.grib2 2026-04-22 04:17 2.5M
20260422T00Z_MSC_GDPS_Precip-Accum12h_Sfc_LatLon0.15_PT054H.grib2 2026-04-22 04:17 4.0M
20260422T00Z_MSC_GDPS_Precip-Accum1h_Sfc_LatLon0.15_PT054H.grib2 2026-04-22 04:17 3.2M
20260422T00Z_MSC_GDPS_Precip-Accum24h_Sfc_LatLon0.15_PT054H.grib2 2026-04-22 04:17 4.6M
20260422T00Z_MSC_GDPS_Precip-Accum3h_Sfc_LatLon0.15_PT054H.grib2 2026-04-22 04:17 3.5M
20260422T00Z_MSC_GDPS_Precip-Accum6h_Sfc_LatLon0.15_PT054H.grib2 2026-04-22 04:17 3.5M
20260422T00Z_MSC_GDPS_Precip-Accum_Sfc_LatLon0.15_PT054H.grib2 2026-04-22 04:17 5.0M
20260422T00Z_MSC_GDPS_PrecipRate_Sfc_LatLon0.15_PT054H.grib2 2026-04-22 04:17 3.0M
20260422T00Z_MSC_GDPS_PrecipType-Instant_Sfc_LatLon0.15_PT054H.grib2 2026-04-22 04:17 1.5M
20260422T00Z_MSC_GDPS_Pressure_MSL_LatLon0.15_PT054H.grib2 2026-04-22 04:17 819K
20260422T00Z_MSC_GDPS_Pressure_PVU-1.5_LatLon0.15_PT054H.grib2 2026-04-22 04:17 5.8M
20260422T00Z_MSC_GDPS_Pressure_PVU-1_LatLon0.15_PT054H.grib2 2026-04-22 04:17 6.0M
20260422T00Z_MSC_GDPS_Pressure_PVU-2_LatLon0.15_PT054H.grib2 2026-04-22 04:17 5.6M
20260422T00Z_MSC_GDPS_Pressure_Sfc_LatLon0.15_PT054H.grib2 2026-04-22 04:17 1.1M
20260422T00Z_MSC_GDPS_RadiativeTemp_Sfc_LatLon0.15_PT054H.grib2 2026-04-22 04:17 662K
20260422T00Z_MSC_GDPS_Rain-Accum12h_Sfc_LatLon0.15_PT054H.grib2 2026-04-22 04:17 2.6M
20260422T00Z_MSC_GDPS_Rain-Accum1h_Sfc_LatLon0.15_PT054H.grib2 2026-04-22 04:17 1.6M
20260422T00Z_MSC_GDPS_Rain-Accum24h_Sfc_LatLon0.15_PT054H.grib2 2026-04-22 04:17 3.1M
20260422T00Z_MSC_GDPS_Rain-Accum3h_Sfc_LatLon0.15_PT054H.grib2 2026-04-22 04:17 1.8M
20260422T00Z_MSC_GDPS_Rain-Accum6h_Sfc_LatLon0.15_PT054H.grib2 2026-04-22 04:17 2.2M
20260422T00Z_MSC_GDPS_Rain-Accum_Sfc_LatLon0.15_PT054H.grib2 2026-04-22 04:17 3.7M
20260422T00Z_MSC_GDPS_RelativeHumidity_AGL-2m_LatLon0.15_PT054H.grib2 2026-04-22 04:17 1.0M
20260422T00Z_MSC_GDPS_RelativeHumidity_IsbL-0010_LatLon0.15_PT054H.grib2 2026-04-22 04:17 262K
20260422T00Z_MSC_GDPS_RelativeHumidity_IsbL-0020_LatLon0.15_PT054H.grib2 2026-04-22 04:17 274K
20260422T00Z_MSC_GDPS_RelativeHumidity_IsbL-0030_LatLon0.15_PT054H.grib2 2026-04-22 04:17 426K
20260422T00Z_MSC_GDPS_RelativeHumidity_IsbL-0050_LatLon0.15_PT054H.grib2 2026-04-22 04:17 333K
20260422T00Z_MSC_GDPS_RelativeHumidity_IsbL-0100_LatLon0.15_PT054H.grib2 2026-04-22 04:17 498K
20260422T00Z_MSC_GDPS_RelativeHumidity_IsbL-0150_LatLon0.15_PT054H.grib2 2026-04-22 04:17 650K
20260422T00Z_MSC_GDPS_RelativeHumidity_IsbL-0175_LatLon0.15_PT054H.grib2 2026-04-22 04:17 783K
20260422T00Z_MSC_GDPS_RelativeHumidity_IsbL-0200_LatLon0.15_PT054H.grib2 2026-04-22 04:17 697K
20260422T00Z_MSC_GDPS_RelativeHumidity_IsbL-0225_LatLon0.15_PT054H.grib2 2026-04-22 04:17 786K
20260422T00Z_MSC_GDPS_RelativeHumidity_IsbL-0250_LatLon0.15_PT054H.grib2 2026-04-22 04:17 869K
20260422T00Z_MSC_GDPS_RelativeHumidity_IsbL-0275_LatLon0.15_PT054H.grib2 2026-04-22 04:17 889K
20260422T00Z_MSC_GDPS_RelativeHumidity_IsbL-0300_LatLon0.15_PT054H.grib2 2026-04-22 04:17 930K
20260422T00Z_MSC_GDPS_RelativeHumidity_IsbL-0350_LatLon0.15_PT054H.grib2 2026-04-22 04:17 948K
20260422T00Z_MSC_GDPS_RelativeHumidity_IsbL-0400_LatLon0.15_PT054H.grib2 2026-04-22 04:17 1.0M
20260422T00Z_MSC_GDPS_RelativeHumidity_IsbL-0450_LatLon0.15_PT054H.grib2 2026-04-22 04:17 1.0M
20260422T00Z_MSC_GDPS_RelativeHumidity_IsbL-0500_LatLon0.15_PT054H.grib2 2026-04-22 04:17 1.0M
20260422T00Z_MSC_GDPS_RelativeHumidity_IsbL-0550_LatLon0.15_PT054H.grib2 2026-04-22 04:17 1.0M
20260422T00Z_MSC_GDPS_RelativeHumidity_IsbL-0600_LatLon0.15_PT054H.grib2 2026-04-22 04:17 1.0M
20260422T00Z_MSC_GDPS_RelativeHumidity_IsbL-0650_LatLon0.15_PT054H.grib2 2026-04-22 04:17 1.1M
20260422T00Z_MSC_GDPS_RelativeHumidity_IsbL-0700_LatLon0.15_PT054H.grib2 2026-04-22 04:17 1.1M
20260422T00Z_MSC_GDPS_RelativeHumidity_IsbL-0750_LatLon0.15_PT054H.grib2 2026-04-22 04:17 1.1M
20260422T00Z_MSC_GDPS_RelativeHumidity_IsbL-0800_LatLon0.15_PT054H.grib2 2026-04-22 04:17 1.2M
20260422T00Z_MSC_GDPS_RelativeHumidity_IsbL-0850_LatLon0.15_PT054H.grib2 2026-04-22 04:17 1.3M
20260422T00Z_MSC_GDPS_RelativeHumidity_IsbL-0875_LatLon0.15_PT054H.grib2 2026-04-22 04:17 1.2M
20260422T00Z_MSC_GDPS_RelativeHumidity_IsbL-0900_LatLon0.15_PT054H.grib2 2026-04-22 04:17 1.2M
20260422T00Z_MSC_GDPS_RelativeHumidity_IsbL-0925_LatLon0.15_PT054H.grib2 2026-04-22 04:17 1.2M
20260422T00Z_MSC_GDPS_RelativeHumidity_IsbL-0950_LatLon0.15_PT054H.grib2 2026-04-22 04:17 1.2M
20260422T00Z_MSC_GDPS_RelativeHumidity_IsbL-0970_LatLon0.15_PT054H.grib2 2026-04-22 04:17 1.2M
20260422T00Z_MSC_GDPS_RelativeHumidity_IsbL-0985_LatLon0.15_PT054H.grib2 2026-04-22 04:17 1.1M
20260422T00Z_MSC_GDPS_RelativeHumidity_IsbL-1000_LatLon0.15_PT054H.grib2 2026-04-22 04:17 1.1M
20260422T00Z_MSC_GDPS_RelativeHumidity_IsbL-1015_LatLon0.15_PT054H.grib2 2026-04-22 04:17 1.0M
20260422T00Z_MSC_GDPS_RelativeVorticity_IsbL-0200_LatLon0.15_PT054H.grib2 2026-04-22 04:17 1.2M
20260422T00Z_MSC_GDPS_RelativeVorticity_IsbL-0250_LatLon0.15_PT054H.grib2 2026-04-22 04:17 1.3M
20260422T00Z_MSC_GDPS_RelativeVorticity_IsbL-0500_LatLon0.15_PT054H.grib2 2026-04-22 04:17 1.5M
20260422T00Z_MSC_GDPS_RelativeVorticity_IsbL-0700_LatLon0.15_PT054H.grib2 2026-04-22 04:17 1.6M
20260422T00Z_MSC_GDPS_RelativeVorticity_IsbL-0850_LatLon0.15_PT054H.grib2 2026-04-22 04:17 1.6M
20260422T00Z_MSC_GDPS_Runoff-Accum_Sfc_LatLon0.15_PT054H.grib2 2026-04-22 04:17 114K
20260422T00Z_MSC_GDPS_SensibleHeatNetFlux_Sfc_LatLon0.15_PT054H.grib2 2026-04-22 04:17 484K
20260422T00Z_MSC_GDPS_ShowalterIndex_IsbL-0500_LatLon0.15_PT054H.grib2 2026-04-22 04:17 6.2M
20260422T00Z_MSC_GDPS_Snow-Accum12h_Sfc_LatLon0.15_PT054H.grib2 2026-04-22 04:17 1.6M
20260422T00Z_MSC_GDPS_Snow-Accum1h_Sfc_LatLon0.15_PT054H.grib2 2026-04-22 04:17 1.1M
20260422T00Z_MSC_GDPS_Snow-Accum24h_Sfc_LatLon0.15_PT054H.grib2 2026-04-22 04:17 1.6M
20260422T00Z_MSC_GDPS_Snow-Accum3h_Sfc_LatLon0.15_PT054H.grib2 2026-04-22 04:17 1.1M
20260422T00Z_MSC_GDPS_Snow-Accum6h_Sfc_LatLon0.15_PT054H.grib2 2026-04-22 04:17 1.5M
20260422T00Z_MSC_GDPS_Snow-Accum_Sfc_LatLon0.15_PT054H.grib2 2026-04-22 04:17 1.9M
20260422T00Z_MSC_GDPS_SnowDensity_Sfc_LatLon0.15_PT054H.grib2 2026-04-22 04:17 267K
20260422T00Z_MSC_GDPS_SnowDepth_Sfc_LatLon0.15_PT054H.grib2 2026-04-22 04:17 1.8M
20260422T00Z_MSC_GDPS_SoilTemp_DBS-0to10cm_LatLon0.15_PT054H.grib2 2026-04-22 04:17 502K
20260422T00Z_MSC_GDPS_SoilTemp_Sfc_LatLon0.15_PT054H.grib2 2026-04-22 04:17 578K
20260422T00Z_MSC_GDPS_SoilVolumetricIceContent_Sfc_LatLon0.15_PT054H.grib2 2026-04-22 04:17 216K
20260422T00Z_MSC_GDPS_SoilVolumetricWaterContent_DBS-0to10cm_LatLon0.15_PT054H.grib2 2026-04-22 04:17 559K
20260422T00Z_MSC_GDPS_SoilVolumetricWaterContent_DBS-0to1cm_LatLon0.15_PT054H.grib2 2026-04-22 04:17 652K
20260422T00Z_MSC_GDPS_SpecificHumidity_AGL-120m_LatLon0.15_PT054H.grib2 2026-04-22 04:17 1.1M
20260422T00Z_MSC_GDPS_SpecificHumidity_AGL-2m_LatLon0.15_PT054H.grib2 2026-04-22 04:17 1.2M
20260422T00Z_MSC_GDPS_SpecificHumidity_AGL-40m_LatLon0.15_PT054H.grib2 2026-04-22 04:17 1.1M
20260422T00Z_MSC_GDPS_SpecificHumidity_AGL-80m_LatLon0.15_PT054H.grib2 2026-04-22 04:17 1.1M
20260422T00Z_MSC_GDPS_SpecificHumidity_IsbL-0001_LatLon0.15_PT054H.grib2 2026-04-22 04:17 1.3M
20260422T00Z_MSC_GDPS_SpecificHumidity_IsbL-0005_LatLon0.15_PT054H.grib2 2026-04-22 04:17 1.2M
20260422T00Z_MSC_GDPS_SpecificHumidity_IsbL-0010_LatLon0.15_PT054H.grib2 2026-04-22 04:17 1.3M
20260422T00Z_MSC_GDPS_SpecificHumidity_IsbL-0020_LatLon0.15_PT054H.grib2 2026-04-22 04:17 1.3M
20260422T00Z_MSC_GDPS_SpecificHumidity_IsbL-0030_LatLon0.15_PT054H.grib2 2026-04-22 04:17 1.6M
20260422T00Z_MSC_GDPS_SpecificHumidity_IsbL-0050_LatLon0.15_PT054H.grib2 2026-04-22 04:17 1.4M
20260422T00Z_MSC_GDPS_SpecificHumidity_IsbL-0100_LatLon0.15_PT054H.grib2 2026-04-22 04:17 1.3M
20260422T00Z_MSC_GDPS_SpecificHumidity_IsbL-0150_LatLon0.15_PT054H.grib2 2026-04-22 04:17 1.3M
20260422T00Z_MSC_GDPS_SpecificHumidity_IsbL-0175_LatLon0.15_PT054H.grib2 2026-04-22 04:17 1.2M
20260422T00Z_MSC_GDPS_SpecificHumidity_IsbL-0200_LatLon0.15_PT054H.grib2 2026-04-22 04:17 1.3M
20260422T00Z_MSC_GDPS_SpecificHumidity_IsbL-0225_LatLon0.15_PT054H.grib2 2026-04-22 04:17 1.3M
20260422T00Z_MSC_GDPS_SpecificHumidity_IsbL-0250_LatLon0.15_PT054H.grib2 2026-04-22 04:17 1.4M
20260422T00Z_MSC_GDPS_SpecificHumidity_IsbL-0275_LatLon0.15_PT054H.grib2 2026-04-22 04:17 1.3M
20260422T00Z_MSC_GDPS_SpecificHumidity_IsbL-0300_LatLon0.15_PT054H.grib2 2026-04-22 04:17 1.2M
20260422T00Z_MSC_GDPS_SpecificHumidity_IsbL-0350_LatLon0.15_PT054H.grib2 2026-04-22 04:17 1.2M
20260422T00Z_MSC_GDPS_SpecificHumidity_IsbL-0400_LatLon0.15_PT054H.grib2 2026-04-22 04:17 1.5M
20260422T00Z_MSC_GDPS_SpecificHumidity_IsbL-0450_LatLon0.15_PT054H.grib2 2026-04-22 04:17 1.6M
20260422T00Z_MSC_GDPS_SpecificHumidity_IsbL-0500_LatLon0.15_PT054H.grib2 2026-04-22 04:17 1.4M
20260422T00Z_MSC_GDPS_SpecificHumidity_IsbL-0550_LatLon0.15_PT054H.grib2 2026-04-22 04:17 1.6M
20260422T00Z_MSC_GDPS_SpecificHumidity_IsbL-0600_LatLon0.15_PT054H.grib2 2026-04-22 04:17 1.7M
20260422T00Z_MSC_GDPS_SpecificHumidity_IsbL-0650_LatLon0.15_PT054H.grib2 2026-04-22 04:17 1.5M
20260422T00Z_MSC_GDPS_SpecificHumidity_IsbL-0700_LatLon0.15_PT054H.grib2 2026-04-22 04:17 1.6M
20260422T00Z_MSC_GDPS_SpecificHumidity_IsbL-0750_LatLon0.15_PT054H.grib2 2026-04-22 04:17 1.7M
20260422T00Z_MSC_GDPS_SpecificHumidity_IsbL-0800_LatLon0.15_PT054H.grib2 2026-04-22 04:17 1.8M
20260422T00Z_MSC_GDPS_SpecificHumidity_IsbL-0850_LatLon0.15_PT054H.grib2 2026-04-22 04:17 1.9M
20260422T00Z_MSC_GDPS_SpecificHumidity_IsbL-0875_LatLon0.15_PT054H.grib2 2026-04-22 04:17 1.9M
20260422T00Z_MSC_GDPS_SpecificHumidity_IsbL-0900_LatLon0.15_PT054H.grib2 2026-04-22 04:17 1.9M
20260422T00Z_MSC_GDPS_SpecificHumidity_IsbL-0925_LatLon0.15_PT054H.grib2 2026-04-22 04:17 1.6M
20260422T00Z_MSC_GDPS_SpecificHumidity_IsbL-0950_LatLon0.15_PT054H.grib2 2026-04-22 04:17 1.5M
20260422T00Z_MSC_GDPS_SpecificHumidity_IsbL-0970_LatLon0.15_PT054H.grib2 2026-04-22 04:17 1.5M
20260422T00Z_MSC_GDPS_SpecificHumidity_IsbL-0985_LatLon0.15_PT054H.grib2 2026-04-22 04:17 1.5M
20260422T00Z_MSC_GDPS_SpecificHumidity_IsbL-1000_LatLon0.15_PT054H.grib2 2026-04-22 04:17 1.5M
20260422T00Z_MSC_GDPS_SpecificHumidity_IsbL-1015_LatLon0.15_PT054H.grib2 2026-04-22 04:17 1.4M
20260422T00Z_MSC_GDPS_SpecificHumidity_Sfc_LatLon0.15_PT054H.grib2 2026-04-22 04:17 663K
20260422T00Z_MSC_GDPS_Thickness_IsbL-0850to0700_LatLon0.15_PT054H.grib2 2026-04-22 04:17 466K
20260422T00Z_MSC_GDPS_Thickness_IsbL-1000to0500_LatLon0.15_PT054H.grib2 2026-04-22 04:17 372K
20260422T00Z_MSC_GDPS_Thickness_IsbL-1000to0850_LatLon0.15_PT054H.grib2 2026-04-22 04:17 485K
20260422T00Z_MSC_GDPS_TotalCloudCover_Sfc_LatLon0.15_PT054H.grib2 2026-04-22 04:17 822K
20260422T00Z_MSC_GDPS_TotalTotalsIndex_Sfc_LatLon0.15_PT054H.grib2 2026-04-22 04:17 6.2M
20260422T00Z_MSC_GDPS_UVIndex-ClearSky_Sfc_LatLon0.15_PT054H.grib2 2026-04-22 04:58 1.1M
20260422T00Z_MSC_GDPS_UVIndex_Sfc_LatLon0.15_PT054H.grib2 2026-04-22 04:58 1.4M
20260422T00Z_MSC_GDPS_UpwardLongwaveRadiationFlux_NTAtm_LatLon0.15_PT054H.grib2 2026-04-22 04:17 834K
20260422T00Z_MSC_GDPS_VerticalVelocity_IsbL-0200_LatLon0.15_PT054H.grib2 2026-04-22 04:17 1.0M
20260422T00Z_MSC_GDPS_VerticalVelocity_IsbL-0250_LatLon0.15_PT054H.grib2 2026-04-22 04:17 1.1M
20260422T00Z_MSC_GDPS_VerticalVelocity_IsbL-0500_LatLon0.15_PT054H.grib2 2026-04-22 04:17 1.3M
20260422T00Z_MSC_GDPS_VerticalVelocity_IsbL-0600_LatLon0.15_PT054H.grib2 2026-04-22 04:17 1.1M
20260422T00Z_MSC_GDPS_VerticalVelocity_IsbL-0700_LatLon0.15_PT054H.grib2 2026-04-22 04:17 1.1M
20260422T00Z_MSC_GDPS_VerticalVelocity_IsbL-0850_LatLon0.15_PT054H.grib2 2026-04-22 04:17 1.6M
20260422T00Z_MSC_GDPS_WindChill_Sfc_LatLon0.15_PT054H.grib2 2026-04-22 04:17 5.3M
20260422T00Z_MSC_GDPS_WindDir_AGL-10m_LatLon0.15_PT054H.grib2 2026-04-22 04:17 1.3M
20260422T00Z_MSC_GDPS_WindDir_AGL-120m_LatLon0.15_PT054H.grib2 2026-04-22 04:17 1.3M
20260422T00Z_MSC_GDPS_WindDir_AGL-40m_LatLon0.15_PT054H.grib2 2026-04-22 04:17 1.4M
20260422T00Z_MSC_GDPS_WindDir_AGL-80m_LatLon0.15_PT054H.grib2 2026-04-22 04:17 1.4M
20260422T00Z_MSC_GDPS_WindDir_IsbL-0001_LatLon0.15_PT054H.grib2 2026-04-22 04:17 658K
20260422T00Z_MSC_GDPS_WindDir_IsbL-0005_LatLon0.15_PT054H.grib2 2026-04-22 04:17 792K
20260422T00Z_MSC_GDPS_WindDir_IsbL-0010_LatLon0.15_PT054H.grib2 2026-04-22 04:17 859K
20260422T00Z_MSC_GDPS_WindDir_IsbL-0020_LatLon0.15_PT054H.grib2 2026-04-22 04:17 941K
20260422T00Z_MSC_GDPS_WindDir_IsbL-0030_LatLon0.15_PT054H.grib2 2026-04-22 04:17 922K
20260422T00Z_MSC_GDPS_WindDir_IsbL-0050_LatLon0.15_PT054H.grib2 2026-04-22 04:17 970K
20260422T00Z_MSC_GDPS_WindDir_IsbL-0100_LatLon0.15_PT054H.grib2 2026-04-22 04:17 1.0M
20260422T00Z_MSC_GDPS_WindDir_IsbL-0150_LatLon0.15_PT054H.grib2 2026-04-22 04:17 1.0M
20260422T00Z_MSC_GDPS_WindDir_IsbL-0175_LatLon0.15_PT054H.grib2 2026-04-22 04:17 1.1M
20260422T00Z_MSC_GDPS_WindDir_IsbL-0200_LatLon0.15_PT054H.grib2 2026-04-22 04:17 1.1M
20260422T00Z_MSC_GDPS_WindDir_IsbL-0225_LatLon0.15_PT054H.grib2 2026-04-22 04:17 1.1M
20260422T00Z_MSC_GDPS_WindDir_IsbL-0250_LatLon0.15_PT054H.grib2 2026-04-22 04:17 1.1M
20260422T00Z_MSC_GDPS_WindDir_IsbL-0275_LatLon0.15_PT054H.grib2 2026-04-22 04:17 1.2M
20260422T00Z_MSC_GDPS_WindDir_IsbL-0300_LatLon0.15_PT054H.grib2 2026-04-22 04:17 1.2M
20260422T00Z_MSC_GDPS_WindDir_IsbL-0350_LatLon0.15_PT054H.grib2 2026-04-22 04:17 1.2M
20260422T00Z_MSC_GDPS_WindDir_IsbL-0400_LatLon0.15_PT054H.grib2 2026-04-22 04:17 1.2M
20260422T00Z_MSC_GDPS_WindDir_IsbL-0450_LatLon0.15_PT054H.grib2 2026-04-22 04:17 1.3M
20260422T00Z_MSC_GDPS_WindDir_IsbL-0500_LatLon0.15_PT054H.grib2 2026-04-22 04:17 1.3M
20260422T00Z_MSC_GDPS_WindDir_IsbL-0550_LatLon0.15_PT054H.grib2 2026-04-22 04:17 1.4M
20260422T00Z_MSC_GDPS_WindDir_IsbL-0600_LatLon0.15_PT054H.grib2 2026-04-22 04:17 1.4M
20260422T00Z_MSC_GDPS_WindDir_IsbL-0650_LatLon0.15_PT054H.grib2 2026-04-22 04:17 1.5M
20260422T00Z_MSC_GDPS_WindDir_IsbL-0700_LatLon0.15_PT054H.grib2 2026-04-22 04:17 1.6M
20260422T00Z_MSC_GDPS_WindDir_IsbL-0750_LatLon0.15_PT054H.grib2 2026-04-22 04:17 1.7M
20260422T00Z_MSC_GDPS_WindDir_IsbL-0800_LatLon0.15_PT054H.grib2 2026-04-22 04:17 1.8M
20260422T00Z_MSC_GDPS_WindDir_IsbL-0850_LatLon0.15_PT054H.grib2 2026-04-22 04:17 1.9M
20260422T00Z_MSC_GDPS_WindDir_IsbL-0875_LatLon0.15_PT054H.grib2 2026-04-22 04:17 1.9M
20260422T00Z_MSC_GDPS_WindDir_IsbL-0900_LatLon0.15_PT054H.grib2 2026-04-22 04:17 1.9M
20260422T00Z_MSC_GDPS_WindDir_IsbL-0925_LatLon0.15_PT054H.grib2 2026-04-22 04:17 2.0M
20260422T00Z_MSC_GDPS_WindDir_IsbL-0950_LatLon0.15_PT054H.grib2 2026-04-22 04:17 1.9M
20260422T00Z_MSC_GDPS_WindDir_IsbL-0970_LatLon0.15_PT054H.grib2 2026-04-22 04:17 2.0M
20260422T00Z_MSC_GDPS_WindDir_IsbL-0985_LatLon0.15_PT054H.grib2 2026-04-22 04:17 2.0M
20260422T00Z_MSC_GDPS_WindDir_IsbL-1000_LatLon0.15_PT054H.grib2 2026-04-22 04:17 2.0M
20260422T00Z_MSC_GDPS_WindDir_IsbL-1015_LatLon0.15_PT054H.grib2 2026-04-22 04:17 2.0M
20260422T00Z_MSC_GDPS_WindGust-Max_AGL-10m_LatLon0.15_PT054H.grib2 2026-04-22 04:17 2.2M
20260422T00Z_MSC_GDPS_WindGust-Min_AGL-10m_LatLon0.15_PT054H.grib2 2026-04-22 04:17 2.2M
20260422T00Z_MSC_GDPS_WindGust_AGL-10m_LatLon0.15_PT054H.grib2 2026-04-22 04:17 2.2M
20260422T00Z_MSC_GDPS_WindSpeed_AGL-10m_LatLon0.15_PT054H.grib2 2026-04-22 04:17 1.1M
20260422T00Z_MSC_GDPS_WindSpeed_AGL-120m_LatLon0.15_PT054H.grib2 2026-04-22 04:17 1.2M
20260422T00Z_MSC_GDPS_WindSpeed_AGL-40m_LatLon0.15_PT054H.grib2 2026-04-22 04:17 1.2M
20260422T00Z_MSC_GDPS_WindSpeed_AGL-80m_LatLon0.15_PT054H.grib2 2026-04-22 04:17 1.2M
20260422T00Z_MSC_GDPS_WindSpeed_IsbL-0001_LatLon0.15_PT054H.grib2 2026-04-22 04:17 641K
20260422T00Z_MSC_GDPS_WindSpeed_IsbL-0005_LatLon0.15_PT054H.grib2 2026-04-22 04:17 687K
20260422T00Z_MSC_GDPS_WindSpeed_IsbL-0010_LatLon0.15_PT054H.grib2 2026-04-22 04:17 628K
20260422T00Z_MSC_GDPS_WindSpeed_IsbL-0020_LatLon0.15_PT054H.grib2 2026-04-22 04:17 859K
20260422T00Z_MSC_GDPS_WindSpeed_IsbL-0030_LatLon0.15_PT054H.grib2 2026-04-22 04:17 938K
20260422T00Z_MSC_GDPS_WindSpeed_IsbL-0050_LatLon0.15_PT054H.grib2 2026-04-22 04:17 1.0M
20260422T00Z_MSC_GDPS_WindSpeed_IsbL-0100_LatLon0.15_PT054H.grib2 2026-04-22 04:17 1.1M
20260422T00Z_MSC_GDPS_WindSpeed_IsbL-0150_LatLon0.15_PT054H.grib2 2026-04-22 04:17 1.0M
20260422T00Z_MSC_GDPS_WindSpeed_IsbL-0175_LatLon0.15_PT054H.grib2 2026-04-22 04:17 1.0M
20260422T00Z_MSC_GDPS_WindSpeed_IsbL-0200_LatLon0.15_PT054H.grib2 2026-04-22 04:17 1.1M
20260422T00Z_MSC_GDPS_WindSpeed_IsbL-0225_LatLon0.15_PT054H.grib2 2026-04-22 04:17 1.1M
20260422T00Z_MSC_GDPS_WindSpeed_IsbL-0250_LatLon0.15_PT054H.grib2 2026-04-22 04:17 1.1M
20260422T00Z_MSC_GDPS_WindSpeed_IsbL-0275_LatLon0.15_PT054H.grib2 2026-04-22 04:17 1.1M
20260422T00Z_MSC_GDPS_WindSpeed_IsbL-0300_LatLon0.15_PT054H.grib2 2026-04-22 04:17 1.1M
20260422T00Z_MSC_GDPS_WindSpeed_IsbL-0350_LatLon0.15_PT054H.grib2 2026-04-22 04:17 1.1M
20260422T00Z_MSC_GDPS_WindSpeed_IsbL-0400_LatLon0.15_PT054H.grib2 2026-04-22 04:17 1.1M
20260422T00Z_MSC_GDPS_WindSpeed_IsbL-0450_LatLon0.15_PT054H.grib2 2026-04-22 04:17 1.1M
20260422T00Z_MSC_GDPS_WindSpeed_IsbL-0500_LatLon0.15_PT054H.grib2 2026-04-22 04:17 1.1M
20260422T00Z_MSC_GDPS_WindSpeed_IsbL-0550_LatLon0.15_PT054H.grib2 2026-04-22 04:17 1.1M
20260422T00Z_MSC_GDPS_WindSpeed_IsbL-0600_LatLon0.15_PT054H.grib2 2026-04-22 04:17 1.4M
20260422T00Z_MSC_GDPS_WindSpeed_IsbL-0650_LatLon0.15_PT054H.grib2 2026-04-22 04:17 1.4M
20260422T00Z_MSC_GDPS_WindSpeed_IsbL-0700_LatLon0.15_PT054H.grib2 2026-04-22 04:17 1.5M
20260422T00Z_MSC_GDPS_WindSpeed_IsbL-0750_LatLon0.15_PT054H.grib2 2026-04-22 04:17 1.5M
20260422T00Z_MSC_GDPS_WindSpeed_IsbL-0800_LatLon0.15_PT054H.grib2 2026-04-22 04:17 1.6M
20260422T00Z_MSC_GDPS_WindSpeed_IsbL-0850_LatLon0.15_PT054H.grib2 2026-04-22 04:17 1.8M
20260422T00Z_MSC_GDPS_WindSpeed_IsbL-0875_LatLon0.15_PT054H.grib2 2026-04-22 04:17 1.9M
20260422T00Z_MSC_GDPS_WindSpeed_IsbL-0900_LatLon0.15_PT054H.grib2 2026-04-22 04:17 1.9M
20260422T00Z_MSC_GDPS_WindSpeed_IsbL-0925_LatLon0.15_PT054H.grib2 2026-04-22 04:17 1.9M
20260422T00Z_MSC_GDPS_WindSpeed_IsbL-0950_LatLon0.15_PT054H.grib2 2026-04-22 04:17 1.9M
20260422T00Z_MSC_GDPS_WindSpeed_IsbL-0970_LatLon0.15_PT054H.grib2 2026-04-22 04:17 1.9M
20260422T00Z_MSC_GDPS_WindSpeed_IsbL-0985_LatLon0.15_PT054H.grib2 2026-04-22 04:17 1.8M
20260422T00Z_MSC_GDPS_WindSpeed_IsbL-1000_LatLon0.15_PT054H.grib2 2026-04-22 04:17 1.8M
20260422T00Z_MSC_GDPS_WindSpeed_IsbL-1015_LatLon0.15_PT054H.grib2 2026-04-22 04:17 1.8M
20260422T00Z_MSC_GDPS_WindU_AGL-10m_LatLon0.15_PT054H.grib2 2026-04-22 04:17 1.3M
20260422T00Z_MSC_GDPS_WindU_AGL-120m_LatLon0.15_PT054H.grib2 2026-04-22 04:17 967K
20260422T00Z_MSC_GDPS_WindU_AGL-40m_LatLon0.15_PT054H.grib2 2026-04-22 04:17 963K
20260422T00Z_MSC_GDPS_WindU_AGL-80m_LatLon0.15_PT054H.grib2 2026-04-22 04:17 967K
20260422T00Z_MSC_GDPS_WindU_IsbL-0001_LatLon0.15_PT054H.grib2 2026-04-22 04:17 643K
20260422T00Z_MSC_GDPS_WindU_IsbL-0005_LatLon0.15_PT054H.grib2 2026-04-22 04:17 689K
20260422T00Z_MSC_GDPS_WindU_IsbL-0010_LatLon0.15_PT054H.grib2 2026-04-22 04:17 701K
20260422T00Z_MSC_GDPS_WindU_IsbL-0020_LatLon0.15_PT054H.grib2 2026-04-22 04:17 658K
20260422T00Z_MSC_GDPS_WindU_IsbL-0030_LatLon0.15_PT054H.grib2 2026-04-22 04:17 734K
20260422T00Z_MSC_GDPS_WindU_IsbL-0050_LatLon0.15_PT054H.grib2 2026-04-22 04:17 701K
20260422T00Z_MSC_GDPS_WindU_IsbL-0100_LatLon0.15_PT054H.grib2 2026-04-22 04:17 917K
20260422T00Z_MSC_GDPS_WindU_IsbL-0150_LatLon0.15_PT054H.grib2 2026-04-22 04:17 1.0M
20260422T00Z_MSC_GDPS_WindU_IsbL-0175_LatLon0.15_PT054H.grib2 2026-04-22 04:17 822K
20260422T00Z_MSC_GDPS_WindU_IsbL-0200_LatLon0.15_PT054H.grib2 2026-04-22 04:17 852K
20260422T00Z_MSC_GDPS_WindU_IsbL-0225_LatLon0.15_PT054H.grib2 2026-04-22 04:17 864K
20260422T00Z_MSC_GDPS_WindU_IsbL-0250_LatLon0.15_PT054H.grib2 2026-04-22 04:17 863K
20260422T00Z_MSC_GDPS_WindU_IsbL-0275_LatLon0.15_PT054H.grib2 2026-04-22 04:17 887K
20260422T00Z_MSC_GDPS_WindU_IsbL-0300_LatLon0.15_PT054H.grib2 2026-04-22 04:17 877K
20260422T00Z_MSC_GDPS_WindU_IsbL-0350_LatLon0.15_PT054H.grib2 2026-04-22 04:17 891K
20260422T00Z_MSC_GDPS_WindU_IsbL-0400_LatLon0.15_PT054H.grib2 2026-04-22 04:17 895K
20260422T00Z_MSC_GDPS_WindU_IsbL-0450_LatLon0.15_PT054H.grib2 2026-04-22 04:17 1.1M
20260422T00Z_MSC_GDPS_WindU_IsbL-0500_LatLon0.15_PT054H.grib2 2026-04-22 04:17 1.1M
20260422T00Z_MSC_GDPS_WindU_IsbL-0550_LatLon0.15_PT054H.grib2 2026-04-22 04:17 1.1M
20260422T00Z_MSC_GDPS_WindU_IsbL-0600_LatLon0.15_PT054H.grib2 2026-04-22 04:17 1.1M
20260422T00Z_MSC_GDPS_WindU_IsbL-0650_LatLon0.15_PT054H.grib2 2026-04-22 04:17 1.2M
20260422T00Z_MSC_GDPS_WindU_IsbL-0700_LatLon0.15_PT054H.grib2 2026-04-22 04:17 1.2M
20260422T00Z_MSC_GDPS_WindU_IsbL-0750_LatLon0.15_PT054H.grib2 2026-04-22 04:17 1.3M
20260422T00Z_MSC_GDPS_WindU_IsbL-0800_LatLon0.15_PT054H.grib2 2026-04-22 04:17 1.3M
20260422T00Z_MSC_GDPS_WindU_IsbL-0850_LatLon0.15_PT054H.grib2 2026-04-22 04:17 1.4M
20260422T00Z_MSC_GDPS_WindU_IsbL-0875_LatLon0.15_PT054H.grib2 2026-04-22 04:17 1.4M
20260422T00Z_MSC_GDPS_WindU_IsbL-0900_LatLon0.15_PT054H.grib2 2026-04-22 04:17 1.5M
20260422T00Z_MSC_GDPS_WindU_IsbL-0925_LatLon0.15_PT054H.grib2 2026-04-22 04:17 1.5M
20260422T00Z_MSC_GDPS_WindU_IsbL-0950_LatLon0.15_PT054H.grib2 2026-04-22 04:17 1.4M
20260422T00Z_MSC_GDPS_WindU_IsbL-0970_LatLon0.15_PT054H.grib2 2026-04-22 04:17 1.4M
20260422T00Z_MSC_GDPS_WindU_IsbL-0985_LatLon0.15_PT054H.grib2 2026-04-22 04:17 1.4M
20260422T00Z_MSC_GDPS_WindU_IsbL-1000_LatLon0.15_PT054H.grib2 2026-04-22 04:17 1.4M
20260422T00Z_MSC_GDPS_WindU_IsbL-1015_LatLon0.15_PT054H.grib2 2026-04-22 04:17 1.3M
20260422T00Z_MSC_GDPS_WindV_AGL-10m_LatLon0.15_PT054H.grib2 2026-04-22 04:17 1.3M
20260422T00Z_MSC_GDPS_WindV_AGL-120m_LatLon0.15_PT054H.grib2 2026-04-22 04:17 966K
20260422T00Z_MSC_GDPS_WindV_AGL-40m_LatLon0.15_PT054H.grib2 2026-04-22 04:17 962K
20260422T00Z_MSC_GDPS_WindV_AGL-80m_LatLon0.15_PT054H.grib2 2026-04-22 04:17 966K
20260422T00Z_MSC_GDPS_WindV_IsbL-0001_LatLon0.15_PT054H.grib2 2026-04-22 04:17 702K
20260422T00Z_MSC_GDPS_WindV_IsbL-0005_LatLon0.15_PT054H.grib2 2026-04-22 04:17 778K
20260422T00Z_MSC_GDPS_WindV_IsbL-0010_LatLon0.15_PT054H.grib2 2026-04-22 04:17 883K
20260422T00Z_MSC_GDPS_WindV_IsbL-0020_LatLon0.15_PT054H.grib2 2026-04-22 04:17 848K
20260422T00Z_MSC_GDPS_WindV_IsbL-0030_LatLon0.15_PT054H.grib2 2026-04-22 04:17 845K
20260422T00Z_MSC_GDPS_WindV_IsbL-0050_LatLon0.15_PT054H.grib2 2026-04-22 04:17 903K
20260422T00Z_MSC_GDPS_WindV_IsbL-0100_LatLon0.15_PT054H.grib2 2026-04-22 04:17 1.1M
20260422T00Z_MSC_GDPS_WindV_IsbL-0150_LatLon0.15_PT054H.grib2 2026-04-22 04:17 1.0M
20260422T00Z_MSC_GDPS_WindV_IsbL-0175_LatLon0.15_PT054H.grib2 2026-04-22 04:17 1.0M
20260422T00Z_MSC_GDPS_WindV_IsbL-0200_LatLon0.15_PT054H.grib2 2026-04-22 04:17 1.1M
20260422T00Z_MSC_GDPS_WindV_IsbL-0225_LatLon0.15_PT054H.grib2 2026-04-22 04:17 1.1M
20260422T00Z_MSC_GDPS_WindV_IsbL-0250_LatLon0.15_PT054H.grib2 2026-04-22 04:17 857K
20260422T00Z_MSC_GDPS_WindV_IsbL-0275_LatLon0.15_PT054H.grib2 2026-04-22 04:17 880K
20260422T00Z_MSC_GDPS_WindV_IsbL-0300_LatLon0.15_PT054H.grib2 2026-04-22 04:17 868K
20260422T00Z_MSC_GDPS_WindV_IsbL-0350_LatLon0.15_PT054H.grib2 2026-04-22 04:17 880K
20260422T00Z_MSC_GDPS_WindV_IsbL-0400_LatLon0.15_PT054H.grib2 2026-04-22 04:17 1.1M
20260422T00Z_MSC_GDPS_WindV_IsbL-0450_LatLon0.15_PT054H.grib2 2026-04-22 04:17 1.1M
20260422T00Z_MSC_GDPS_WindV_IsbL-0500_LatLon0.15_PT054H.grib2 2026-04-22 04:17 1.1M
20260422T00Z_MSC_GDPS_WindV_IsbL-0550_LatLon0.15_PT054H.grib2 2026-04-22 04:17 1.1M
20260422T00Z_MSC_GDPS_WindV_IsbL-0600_LatLon0.15_PT054H.grib2 2026-04-22 04:17 1.1M
20260422T00Z_MSC_GDPS_WindV_IsbL-0650_LatLon0.15_PT054H.grib2 2026-04-22 04:17 1.1M
20260422T00Z_MSC_GDPS_WindV_IsbL-0700_LatLon0.15_PT054H.grib2 2026-04-22 04:17 1.2M
20260422T00Z_MSC_GDPS_WindV_IsbL-0750_LatLon0.15_PT054H.grib2 2026-04-22 04:17 1.2M
20260422T00Z_MSC_GDPS_WindV_IsbL-0800_LatLon0.15_PT054H.grib2 2026-04-22 04:17 1.3M
20260422T00Z_MSC_GDPS_WindV_IsbL-0850_LatLon0.15_PT054H.grib2 2026-04-22 04:17 1.4M
20260422T00Z_MSC_GDPS_WindV_IsbL-0875_LatLon0.15_PT054H.grib2 2026-04-22 04:17 1.4M
20260422T00Z_MSC_GDPS_WindV_IsbL-0900_LatLon0.15_PT054H.grib2 2026-04-22 04:17 1.4M
20260422T00Z_MSC_GDPS_WindV_IsbL-0925_LatLon0.15_PT054H.grib2 2026-04-22 04:17 1.4M
20260422T00Z_MSC_GDPS_WindV_IsbL-0950_LatLon0.15_PT054H.grib2 2026-04-22 04:17 1.4M
20260422T00Z_MSC_GDPS_WindV_IsbL-0970_LatLon0.15_PT054H.grib2 2026-04-22 04:17 1.4M
20260422T00Z_MSC_GDPS_WindV_IsbL-0985_LatLon0.15_PT054H.grib2 2026-04-22 04:17 1.4M
20260422T00Z_MSC_GDPS_WindV_IsbL-1000_LatLon0.15_PT054H.grib2 2026-04-22 04:17 1.4M
20260422T00Z_MSC_GDPS_WindV_IsbL-1015_LatLon0.15_PT054H.grib2 2026-04-22 04:17 1.3M